Overview Statistics Trail Chart Weather Telemetry Raw packets
 

This is the latest recevied weather packets stored in our database for station/object KH6DH-13. If no packets are shown the sender has not sent any weather packets the latest 10 day(s).

<< 49 50 51 52 53 54 55 >>
Time Temp. Humidity Pressure Rain* Wind** Luminosity Snow
1787915673 25° C - - 0 mm 0.89 m/s, 18° - -
1787915072 25.56° C - - 0 mm 1.79 m/s, 66° - -
1787914471 25° C - - 0 mm 0.45 m/s, 68° - -
1787913868 25.56° C - - 0 mm 2.24 m/s, 21° - -
1787913267 25° C - - 0 mm 1.34 m/s, 42° - -
1787912666 25.56° C - - 0 mm 0 m/s - -
1787912062 25.56° C - - 0 mm 2.24 m/s, 84° - -
1787911461 25.56° C - - 0 mm 0 m/s - -
1787910860 25.56° C - - 0 mm 0 m/s - -
1787910259 25.56° C - - 0 mm 0.89 m/s, 308° - -
1787909658 25.56° C - - 0 mm 1.79 m/s, 120° - -
1787909057 25.56° C - - 0 mm 1.34 m/s, 121° - -
1787908456 25.56° C - - 0 mm 0.45 m/s, 177° - -
1787907855 25.56° C - - 0 mm 2.24 m/s, 83° - -
1787907254 26.11° C - - 0 mm 0.89 m/s, 94° - -
1787906653 25.56° C - - 0 mm 0.89 m/s, 59° - -
1787906052 26.11° C - - 0 mm 0.89 m/s, 122° - -
1787905451 26.11° C - - 0 mm 0 m/s - -
1787904850 26.11° C - - 0 mm 0 m/s - -
1787904249 25.56° C - - 0 mm 0 m/s - -
1787903648 26.11° C - - 0 mm 0.89 m/s, 44° - -
1787903047 26.11° C - - 0 mm 0.89 m/s, 52° - -
1787902446 25.56° C - - 0 mm 0.89 m/s, 25° - -
1787901845 26.11° C - - 0 mm 0.89 m/s, 87° - -
1787901244 26.11° C - - 0 mm 1.79 m/s, 122° - -

* Rain latest hour (hover to see other rain measurements)
** Current wind speed in m/s (hover to see current wind gust speed)